TimeMST,TemperatureF,Dew PointF,Humidity,Sea Level PressureIn,VisibilityMPH,Wind Direction,Wind SpeedMPH,Gust SpeedMPH,PrecipitationIn,Events,Conditions,WindDirDegrees,DateUTC
12:16 AM,1.4,-4.0,78,29.90,-9999.0,North,-9999.0,-,N/A,,Overcast,0,2012-12-11 07:16:00
12:36 AM,1.4,-4.0,78,29.89,-9999.0,North,-9999.0,-,N/A,,Unknown,0,2012-12-11 07:36:00
12:56 AM,1.4,-4.0,78,29.90,-9999.0,North,-9999.0,-,N/A,,Overcast,0,2012-12-11 07:56:00
1:16 AM,1.4,-4.0,78,29.89,-9999.0,North,-9999.0,-,N/A,,Overcast,0,2012-12-11 08:16:00
1:36 AM,1.4,-4.0,78,29.88,-9999.0,North,-9999.0,-,N/A,,Overcast,0,2012-12-11 08:36:00
1:56 AM,1.4,-4.0,78,29.88,-9999.0,North,-9999.0,-,N/A,,Overcast,0,2012-12-11 08:56:00
2:16 AM,1.4,-4.0,78,29.89,-9999.0,North,-9999.0,-,N/A,,Overcast,0,2012-12-11 09:16:00
2:36 AM,1.4,-4.0,78,29.87,-9999.0,North,-9999.0,-,N/A,,Overcast,0,2012-12-11 09:36:00
2:56 AM,1.4,-4.0,78,29.87,-9999.0,North,-9999.0,-,N/A,,Overcast,0,2012-12-11 09:56:00
3:16 AM,1.4,-4.0,78,29.88,-9999.0,North,-9999.0,-,N/A,,Overcast,0,2012-12-11 10:16:00
3:36 AM,1.4,-4.0,78,29.88,-9999.0,North,-9999.0,-,N/A,,Overcast,0,2012-12-11 10:36:00
3:56 AM,-0.4,-4.0,85,29.89,-9999.0,North,-9999.0,-,N/A,,Unknown,0,2012-12-11 10:56:00
4:16 AM,-0.4,-4.0,85,29.89,-9999.0,North,-9999.0,-,N/A,,Overcast,0,2012-12-11 11:16:00
4:36 AM,1.4,-4.0,78,29.88,-9999.0,North,-9999.0,-,N/A,,Overcast,0,2012-12-11 11:36:00
4:56 AM,-0.4,-4.0,85,29.88,-9999.0,North,-9999.0,-,N/A,,Overcast,0,2012-12-11 11:56:00
5:16 AM,-0.4,-4.0,85,29.86,-9999.0,North,-9999.0,-,N/A,,Overcast,0,2012-12-11 12:16:00
5:36 AM,-0.4,-4.0,85,29.86,-9999.0,North,-9999.0,-,N/A,,Overcast,0,2012-12-11 12:36:00
5:56 AM,-0.4,-4.0,85,29.87,-9999.0,North,-9999.0,-,N/A,,Overcast,0,2012-12-11 12:56:00
6:16 AM,-0.4,-4.0,85,29.87,-9999.0,North,-9999.0,-,N/A,,Overcast,0,2012-12-11 13:16:00
6:36 AM,1.4,-4.0,78,29.88,-9999.0,North,-9999.0,-,N/A,,Overcast,0,2012-12-11 13:36:00
6:56 AM,1.4,-4.0,78,29.89,-9999.0,North,-9999.0,-,N/A,,Overcast,0,2012-12-11 13:56:00
7:16 AM,1.4,-4.0,78,29.91,-9999.0,North,-9999.0,-,N/A,,Overcast,0,2012-12-11 14:16:00
7:36 AM,-0.4,-4.0,85,29.92,-9999.0,North,-9999.0,-,N/A,,Overcast,0,2012-12-11 14:36:00
7:56 AM,-0.4,-4.0,85,29.92,-9999.0,North,-9999.0,-,N/A,,Overcast,0,2012-12-11 14:56:00
8:16 AM,-0.4,-5.8,78,29.92,-9999.0,North,-9999.0,-,N/A,,Overcast,0,2012-12-11 15:16:00
8:36 AM,-0.4,-4.0,85,29.93,-9999.0,North,-9999.0,-,N/A,,Overcast,0,2012-12-11 15:36:00
8:56 AM,-0.4,-4.0,85,29.94,-9999.0,North,-9999.0,-,N/A,,Overcast,0,2012-12-11 15:56:00
9:16 AM,1.4,-4.0,78,29.95,-9999.0,North,-9999.0,-,N/A,,Overcast,0,2012-12-11 16:16:00
9:36 AM,1.4,-4.0,78,29.97,-9999.0,North,-9999.0,-,N/A,,Overcast,0,2012-12-11 16:36:00
9:56 AM,1.4,-2.2,85,29.97,-9999.0,North,-9999.0,-,N/A,,Overcast,0,2012-12-11 16:56:00
10:16 AM,3.2,-2.2,78,29.99,-9999.0,North,-9999.0,-,N/A,,Overcast,0,2012-12-11 17:16:00
10:36 AM,3.2,-0.4,85,29.99,-9999.0,North,-9999.0,-,N/A,,Overcast,0,2012-12-11 17:36:00
10:55 AM,3.2,-0.4,85,29.99,-9999.0,North,-9999.0,-,N/A,,Overcast,0,2012-12-11 17:55:00
11:16 AM,5.0,1.4,85,29.99,-9999.0,North,-9999.0,-,N/A,,Overcast,0,2012-12-11 18:16:00
11:36 AM,5.0,1.4,85,29.98,-9999.0,North,-9999.0,-,N/A,,Overcast,0,2012-12-11 18:36:00
11:56 AM,5.0,1.4,85,29.98,-9999.0,North,-9999.0,-,N/A,,Overcast,0,2012-12-11 18:56:00
12:16 PM,5.0,1.4,85,29.98,-9999.0,North,-9999.0,-,N/A,,Overcast,0,2012-12-11 19:16:00
12:36 PM,5.0,1.4,85,29.97,-9999.0,North,-9999.0,-,N/A,,Overcast,0,2012-12-11 19:36:00
12:56 PM,5.0,1.4,85,29.96,-9999.0,North,-9999.0,-,N/A,,Overcast,0,2012-12-11 19:56:00
1:16 PM,5.0,1.4,85,29.95,-9999.0,North,-9999.0,-,N/A,,Overcast,0,2012-12-11 20:16:00
1:36 PM,5.0,3.2,92,29.93,-9999.0,North,-9999.0,-,N/A,,Overcast,0,2012-12-11 20:36:00
1:56 PM,6.8,3.2,85,29.93,-9999.0,North,-9999.0,-,N/A,,Mostly Cloudy,0,2012-12-11 20:56:00
2:16 PM,6.8,3.2,85,29.94,-9999.0,North,-9999.0,-,N/A,,Unknown,0,2012-12-11 21:16:00
2:36 PM,6.8,3.2,85,29.95,-9999.0,North,-9999.0,-,N/A,,Overcast,0,2012-12-11 21:36:00
2:56 PM,8.6,3.2,79,29.94,-9999.0,North,-9999.0,-,N/A,,Overcast,0,2012-12-11 21:56:00
3:16 PM,8.6,3.2,79,29.96,-9999.0,North,-9999.0,-,N/A,,Overcast,0,2012-12-11 22:16:00
3:36 PM,8.6,5.0,85,29.94,-9999.0,North,-9999.0,-,N/A,,Overcast,0,2012-12-11 22:36:00
3:56 PM,8.6,5.0,85,29.95,-9999.0,North,-9999.0,-,N/A,,Overcast,0,2012-12-11 22:56:00
4:16 PM,8.6,3.2,79,29.95,-9999.0,North,-9999.0,-,N/A,,Overcast,0,2012-12-11 23:16:00
4:36 PM,8.6,3.2,79,29.94,-9999.0,North,-9999.0,-,N/A,,Overcast,0,2012-12-11 23:36:00
4:56 PM,8.6,3.2,79,29.95,-9999.0,North,-9999.0,-,N/A,,Overcast,0,2012-12-11 23:56:00
5:16 PM,6.8,3.2,85,29.95,-9999.0,North,-9999.0,-,N/A,,Overcast,0,2012-12-12 00:16:00
5:36 PM,6.8,3.2,85,29.96,-9999.0,North,-9999.0,-,N/A,,Overcast,0,2012-12-12 00:36:00
5:56 PM,6.8,3.2,85,29.96,-9999.0,North,-9999.0,-,N/A,,Overcast,0,2012-12-12 00:56:00
6:16 PM,6.8,3.2,85,29.99,-9999.0,North,-9999.0,-,N/A,,Overcast,0,2012-12-12 01:16:00
6:36 PM,6.8,3.2,85,30.00,-9999.0,North,-9999.0,-,N/A,,Overcast,0,2012-12-12 01:36:00
6:56 PM,6.8,3.2,85,30.00,-9999.0,North,-9999.0,-,N/A,,Overcast,0,2012-12-12 01:56:00
7:16 PM,6.8,3.2,85,30.00,-9999.0,North,-9999.0,-,N/A,,Overcast,0,2012-12-12 02:16:00
7:36 PM,5.0,3.2,92,29.99,-9999.0,North,-9999.0,-,N/A,,Overcast,0,2012-12-12 02:36:00
7:56 PM,5.0,3.2,92,29.99,-9999.0,North,-9999.0,-,N/A,,Overcast,0,2012-12-12 02:56:00
8:16 PM,6.8,3.2,85,29.99,-9999.0,North,-9999.0,-,N/A,,Overcast,0,2012-12-12 03:16:00
8:36 PM,5.0,1.4,85,29.99,-9999.0,North,-9999.0,-,N/A,,Mostly Cloudy,0,2012-12-12 03:36:00
8:56 PM,5.0,3.2,92,29.99,-9999.0,North,-9999.0,-,N/A,,Mostly Cloudy,0,2012-12-12 03:56:00
9:16 PM,5.0,3.2,92,29.99,-9999.0,North,-9999.0,-,N/A,,Unknown,0,2012-12-12 04:16:00
9:36 PM,5.0,3.2,92,30.01,-9999.0,North,-9999.0,-,N/A,,Unknown,0,2012-12-12 04:36:00
9:56 PM,6.8,3.2,85,30.01,-9999.0,North,-9999.0,-,N/A,,Mostly Cloudy,0,2012-12-12 04:56:00
10:16 PM,5.0,3.2,92,30.02,-9999.0,North,-9999.0,-,N/A,,Mostly Cloudy,0,2012-12-12 05:16:00
10:36 PM,5.0,3.2,92,30.02,-9999.0,North,-9999.0,-,N/A,,Unknown,0,2012-12-12 05:36:00
10:56 PM,6.8,3.2,85,30.02,-9999.0,North,-9999.0,-,N/A,,Unknown,0,2012-12-12 05:56:00
11:16 PM,6.8,3.2,85,30.02,-9999.0,North,-9999.0,-,N/A,,Unknown,0,2012-12-12 06:16:00
11:36 PM,6.8,3.2,85,30.02,-9999.0,North,-9999.0,-,N/A,,Unknown,0,2012-12-12 06:36:00
11:56 PM,6.8,3.2,85,30.02,-9999.0,North,-9999.0,-,N/A,,Unknown,0,2012-12-12 06:56:00